<?xml version="1.0" encoding="UTF-8" standalone="no" ?>
<gpx xmlns="http://www.topografix.com/GPX/1/1" xmlns:xsi="http://www.w3.org/2001/XMLSchema-instance" xsi:schemaLocation="http://www.topografix.com/GPX/1/1 http://www.topografix.com/GPX/1/1/gpx.xsd" version="1.1" creator="VisuGPX - https://www.visugpx.com">
  <metadata>
    <name>Tour Meygal</name>
    <desc><![CDATA[grp_trc:Mézenc]]></desc>
  </metadata>
  <trk>
    <name><![CDATA[Meygal : Tour Testavoyre et lac bleu 18kms]]></name>
    <cmt><![CDATA[17:48:06]]></cmt>
    <desc><![CDATA[<html dir="ltr"><head></head><body contenteditable="true">comment ...</body></html>]]></desc>
    <trkseg>
      <trkpt lat="45.07267" lon="4.12871">
        <ele>1247</ele>
        <time>2022-05-08T15:48:06Z</time>
      </trkpt>
      <trkpt lat="45.07267" lon="4.12871">
        <ele>1247</ele>
        <time>2022-05-08T15:48:06Z</time>
      </trkpt>
      <trkpt lat="45.07256" lon="4.12881">
        <ele>1247</ele>
        <time>2022-05-08T15:48:06Z</time>
      </trkpt>
      <trkpt lat="45.07057" lon="4.12937">
        <ele>1256</ele>
        <time>2022-05-08T15:48:06Z</time>
      </trkpt>
      <trkpt lat="45.06966" lon="4.12936">
        <ele>1263</ele>
        <time>2022-05-08T15:48:06Z</time>
      </trkpt>
      <trkpt lat="45.06933" lon="4.12948">
        <ele>1268</ele>
        <time>2022-05-08T15:48:06Z</time>
      </trkpt>
      <trkpt lat="45.0671" lon="4.13059">
        <ele>1276</ele>
        <time>2022-05-08T15:48:06Z</time>
      </trkpt>
      <trkpt lat="45.0672" lon="4.13047">
        <ele>1279</ele>
        <time>2022-05-08T15:48:06Z</time>
      </trkpt>
      <trkpt lat="45.06704" lon="4.1305">
        <ele>1281</ele>
        <time>2022-05-08T15:48:06Z</time>
      </trkpt>
      <trkpt lat="45.06373" lon="4.13206">
        <ele>1284</ele>
        <time>2022-05-08T15:48:06Z</time>
      </trkpt>
      <trkpt lat="45.06373" lon="4.13206">
        <ele>1287</ele>
        <time>2022-05-08T15:48:06Z</time>
      </trkpt>
      <trkpt lat="45.06056" lon="4.1335">
        <ele>1302</ele>
        <time>2022-05-08T15:48:06Z</time>
      </trkpt>
      <trkpt lat="45.0605" lon="4.13324">
        <ele>1307</ele>
        <time>2022-05-08T15:48:06Z</time>
      </trkpt>
      <trkpt lat="45.06044" lon="4.13313">
        <ele>1309</ele>
        <time>2022-05-08T15:48:06Z</time>
      </trkpt>
      <trkpt lat="45.05943" lon="4.13225">
        <ele>1315</ele>
        <time>2022-05-08T15:48:06Z</time>
      </trkpt>
      <trkpt lat="45.05897" lon="4.13206">
        <ele>1319</ele>
        <time>2022-05-08T15:48:06Z</time>
      </trkpt>
      <trkpt lat="45.05897" lon="4.13206">
        <ele>1329</ele>
        <time>2022-05-08T15:48:06Z</time>
      </trkpt>
      <trkpt lat="45.0584" lon="4.13187">
        <ele>1331</ele>
        <time>2022-05-08T15:48:06Z</time>
      </trkpt>
      <trkpt lat="45.05803" lon="4.13155">
        <ele>1334</ele>
        <time>2022-05-08T15:48:06Z</time>
      </trkpt>
      <trkpt lat="45.05708" lon="4.13017">
        <ele>1341</ele>
        <time>2022-05-08T15:48:06Z</time>
      </trkpt>
      <trkpt lat="45.057" lon="4.1302">
        <ele>1345</ele>
        <time>2022-05-08T15:48:06Z</time>
      </trkpt>
      <trkpt lat="45.05661" lon="4.13174">
        <ele>1357</ele>
        <time>2022-05-08T15:48:06Z</time>
      </trkpt>
      <trkpt lat="45.05659" lon="4.13188">
        <ele>1364</ele>
        <time>2022-05-08T15:48:06Z</time>
      </trkpt>
      <trkpt lat="45.05667" lon="4.13232">
        <ele>1370</ele>
        <time>2022-05-08T15:48:06Z</time>
      </trkpt>
      <trkpt lat="45.05665" lon="4.13253">
        <ele>1375</ele>
        <time>2022-05-08T15:48:06Z</time>
      </trkpt>
      <trkpt lat="45.0566" lon="4.1327">
        <ele>1379</ele>
        <time>2022-05-08T15:48:06Z</time>
      </trkpt>
      <trkpt lat="45.05652" lon="4.13285">
        <ele>1382</ele>
        <time>2022-05-08T15:48:06Z</time>
      </trkpt>
      <trkpt lat="45.05643" lon="4.13295">
        <ele>1385</ele>
        <time>2022-05-08T15:48:06Z</time>
      </trkpt>
      <trkpt lat="45.05607" lon="4.13305">
        <ele>1389</ele>
        <time>2022-05-08T15:48:06Z</time>
      </trkpt>
      <trkpt lat="45.05597" lon="4.13317">
        <ele>1391</ele>
        <time>2022-05-08T15:48:06Z</time>
      </trkpt>
      <trkpt lat="45.05582" lon="4.13322">
        <ele>1393</ele>
        <time>2022-05-08T15:48:06Z</time>
      </trkpt>
      <trkpt lat="45.05568" lon="4.13308">
        <ele>1394</ele>
        <time>2022-05-08T15:48:06Z</time>
      </trkpt>
      <trkpt lat="45.05563" lon="4.13298">
        <ele>1395</ele>
        <time>2022-05-08T15:48:06Z</time>
      </trkpt>
      <trkpt lat="45.05558" lon="4.1329">
        <ele>1396</ele>
        <time>2022-05-08T15:48:06Z</time>
      </trkpt>
      <trkpt lat="45.05549" lon="4.13265">
        <ele>1397</ele>
        <time>2022-05-08T15:48:06Z</time>
      </trkpt>
      <trkpt lat="45.05549" lon="4.13249">
        <ele>1398</ele>
        <time>2022-05-08T15:48:06Z</time>
      </trkpt>
      <trkpt lat="45.05551" lon="4.13233">
        <ele>1399</ele>
        <time>2022-05-08T15:48:06Z</time>
      </trkpt>
      <trkpt lat="45.05555" lon="4.13224">
        <ele>1400</ele>
        <time>2022-05-08T15:48:06Z</time>
      </trkpt>
      <trkpt lat="45.05551" lon="4.13207">
        <ele>1401</ele>
        <time>2022-05-08T15:48:06Z</time>
      </trkpt>
      <trkpt lat="45.05543" lon="4.13189">
        <ele>1403</ele>
        <time>2022-05-08T15:48:06Z</time>
      </trkpt>
      <trkpt lat="45.05524" lon="4.1317">
        <ele>1406</ele>
        <time>2022-05-08T15:48:06Z</time>
      </trkpt>
      <trkpt lat="45.05521" lon="4.13159">
        <ele>1409</ele>
        <time>2022-05-08T15:48:06Z</time>
      </trkpt>
      <trkpt lat="45.05521" lon="4.13159">
        <ele>1426</ele>
        <time>2022-05-08T15:48:06Z</time>
      </trkpt>
      <trkpt lat="45.05512" lon="4.13158">
        <ele>1426</ele>
        <time>2022-05-08T15:48:06Z</time>
      </trkpt>
      <trkpt lat="45.05512" lon="4.13143">
        <ele>1427</ele>
        <time>2022-05-08T15:48:06Z</time>
      </trkpt>
      <trkpt lat="45.05509" lon="4.13134">
        <ele>1427</ele>
        <time>2022-05-08T15:48:06Z</time>
      </trkpt>
      <trkpt lat="45.05502" lon="4.13127">
        <ele>1428</ele>
        <time>2022-05-08T15:48:06Z</time>
      </trkpt>
      <trkpt lat="45.05495" lon="4.13131">
        <ele>1428</ele>
        <time>2022-05-08T15:48:06Z</time>
      </trkpt>
      <trkpt lat="45.05486" lon="4.13141">
        <ele>1428</ele>
        <time>2022-05-08T15:48:06Z</time>
      </trkpt>
      <trkpt lat="45.05486" lon="4.13153">
        <ele>1427</ele>
        <time>2022-05-08T15:48:06Z</time>
      </trkpt>
      <trkpt lat="45.05477" lon="4.1316">
        <ele>1419</ele>
        <time>2022-05-08T15:48:06Z</time>
      </trkpt>
      <trkpt lat="45.05475" lon="4.13171">
        <ele>1419</ele>
        <time>2022-05-08T15:48:06Z</time>
      </trkpt>
      <trkpt lat="45.05486" lon="4.13231">
        <ele>1416</ele>
        <time>2022-05-08T15:48:06Z</time>
      </trkpt>
      <trkpt lat="45.05484" lon="4.13245">
        <ele>1413</ele>
        <time>2022-05-08T15:48:06Z</time>
      </trkpt>
      <trkpt lat="45.05474" lon="4.13264">
        <ele>1411</ele>
        <time>2022-05-08T15:48:06Z</time>
      </trkpt>
      <trkpt lat="45.05464" lon="4.1327">
        <ele>1409</ele>
        <time>2022-05-08T15:48:06Z</time>
      </trkpt>
      <trkpt lat="45.05464" lon="4.1327">
        <ele>1395</ele>
        <time>2022-05-08T15:48:06Z</time>
      </trkpt>
      <trkpt lat="45.05456" lon="4.13282">
        <ele>1395</ele>
        <time>2022-05-08T15:48:06Z</time>
      </trkpt>
      <trkpt lat="45.05436" lon="4.13305">
        <ele>1393</ele>
        <time>2022-05-08T15:48:06Z</time>
      </trkpt>
      <trkpt lat="45.05398" lon="4.13304">
        <ele>1391</ele>
        <time>2022-05-08T15:48:06Z</time>
      </trkpt>
      <trkpt lat="45.05386" lon="4.13299">
        <ele>1389</ele>
        <time>2022-05-08T15:48:06Z</time>
      </trkpt>
      <trkpt lat="45.05374" lon="4.133">
        <ele>1388</ele>
        <time>2022-05-08T15:48:06Z</time>
      </trkpt>
      <trkpt lat="45.05293" lon="4.13273">
        <ele>1384</ele>
        <time>2022-05-08T15:48:06Z</time>
      </trkpt>
      <trkpt lat="45.05271" lon="4.13276">
        <ele>1380</ele>
        <time>2022-05-08T15:48:06Z</time>
      </trkpt>
      <trkpt lat="45.05265" lon="4.13283">
        <ele>1378</ele>
        <time>2022-05-08T15:48:06Z</time>
      </trkpt>
      <trkpt lat="45.0526" lon="4.13292">
        <ele>1376</ele>
        <time>2022-05-08T15:48:06Z</time>
      </trkpt>
      <trkpt lat="45.0526" lon="4.13292">
        <ele>1367</ele>
        <time>2022-05-08T15:48:06Z</time>
      </trkpt>
      <trkpt lat="45.05227" lon="4.13341">
        <ele>1366</ele>
        <time>2022-05-08T15:48:06Z</time>
      </trkpt>
      <trkpt lat="45.05216" lon="4.13368">
        <ele>1366</ele>
        <time>2022-05-08T15:48:06Z</time>
      </trkpt>
      <trkpt lat="45.05189" lon="4.13408">
        <ele>1365</ele>
        <time>2022-05-08T15:48:06Z</time>
      </trkpt>
      <trkpt lat="45.0518" lon="4.13412">
        <ele>1364</ele>
        <time>2022-05-08T15:48:06Z</time>
      </trkpt>
      <trkpt lat="45.05152" lon="4.13405">
        <ele>1364</ele>
        <time>2022-05-08T15:48:06Z</time>
      </trkpt>
      <trkpt lat="45.05142" lon="4.13414">
        <ele>1363</ele>
        <time>2022-05-08T15:48:06Z</time>
      </trkpt>
      <trkpt lat="45.05115" lon="4.13427">
        <ele>1363</ele>
        <time>2022-05-08T15:48:06Z</time>
      </trkpt>
      <trkpt lat="45.051" lon="4.13439">
        <ele>1363</ele>
        <time>2022-05-08T15:48:06Z</time>
      </trkpt>
      <trkpt lat="45.05081" lon="4.13449">
        <ele>1363</ele>
        <time>2022-05-08T15:48:06Z</time>
      </trkpt>
      <trkpt lat="45.05056" lon="4.13475">
        <ele>1363</ele>
        <time>2022-05-08T15:48:06Z</time>
      </trkpt>
      <trkpt lat="45.05044" lon="4.1349">
        <ele>1364</ele>
        <time>2022-05-08T15:48:06Z</time>
      </trkpt>
      <trkpt lat="45.05026" lon="4.13498">
        <ele>1365</ele>
        <time>2022-05-08T15:48:06Z</time>
      </trkpt>
      <trkpt lat="45.05016" lon="4.13518">
        <ele>1366</ele>
        <time>2022-05-08T15:48:06Z</time>
      </trkpt>
      <trkpt lat="45.05012" lon="4.13543">
        <ele>1367</ele>
        <time>2022-05-08T15:48:06Z</time>
      </trkpt>
      <trkpt lat="45.05021" lon="4.13547">
        <ele>1368</ele>
        <time>2022-05-08T15:48:06Z</time>
      </trkpt>
      <trkpt lat="45.05018" lon="4.13561">
        <ele>1368</ele>
        <time>2022-05-08T15:48:06Z</time>
      </trkpt>
      <trkpt lat="45.05015" lon="4.13571">
        <ele>1369</ele>
        <time>2022-05-08T15:48:06Z</time>
      </trkpt>
      <trkpt lat="45.0501" lon="4.13578">
        <ele>1369</ele>
        <time>2022-05-08T15:48:06Z</time>
      </trkpt>
      <trkpt lat="45.04992" lon="4.13612">
        <ele>1368</ele>
        <time>2022-05-08T15:48:06Z</time>
      </trkpt>
      <trkpt lat="45.0499" lon="4.13623">
        <ele>1367</ele>
        <time>2022-05-08T15:48:06Z</time>
      </trkpt>
      <trkpt lat="45.04992" lon="4.13635">
        <ele>1367</ele>
        <time>2022-05-08T15:48:06Z</time>
      </trkpt>
      <trkpt lat="45.04989" lon="4.13658">
        <ele>1365</ele>
        <time>2022-05-08T15:48:06Z</time>
      </trkpt>
      <trkpt lat="45.04979" lon="4.13676">
        <ele>1364</ele>
        <time>2022-05-08T15:48:06Z</time>
      </trkpt>
      <trkpt lat="45.04973" lon="4.13683">
        <ele>1363</ele>
        <time>2022-05-08T15:48:06Z</time>
      </trkpt>
      <trkpt lat="45.04964" lon="4.13688">
        <ele>1362</ele>
        <time>2022-05-08T15:48:06Z</time>
      </trkpt>
      <trkpt lat="45.04955" lon="4.13689">
        <ele>1361</ele>
        <time>2022-05-08T15:48:06Z</time>
      </trkpt>
      <trkpt lat="45.04945" lon="4.13695">
        <ele>1360</ele>
        <time>2022-05-08T15:48:06Z</time>
      </trkpt>
      <trkpt lat="45.04945" lon="4.137">
        <ele>1359</ele>
        <time>2022-05-08T15:48:06Z</time>
      </trkpt>
      <trkpt lat="45.04945" lon="4.137">
        <ele>1354</ele>
        <time>2022-05-08T15:48:06Z</time>
      </trkpt>
      <trkpt lat="45.04936" lon="4.13697">
        <ele>1354</ele>
        <time>2022-05-08T15:48:06Z</time>
      </trkpt>
      <trkpt lat="45.04916" lon="4.13722">
        <ele>1354</ele>
        <time>2022-05-08T15:48:06Z</time>
      </trkpt>
      <trkpt lat="45.04877" lon="4.13796">
        <ele>1353</ele>
        <time>2022-05-08T15:48:06Z</time>
      </trkpt>
      <trkpt lat="45.04868" lon="4.138">
        <ele>1352</ele>
        <time>2022-05-08T15:48:06Z</time>
      </trkpt>
      <trkpt lat="45.04862" lon="4.13812">
        <ele>1346</ele>
        <time>2022-05-08T15:48:06Z</time>
      </trkpt>
      <trkpt lat="45.04861" lon="4.13826">
        <ele>1346</ele>
        <time>2022-05-08T15:48:06Z</time>
      </trkpt>
      <trkpt lat="45.04858" lon="4.13837">
        <ele>1345</ele>
        <time>2022-05-08T15:48:06Z</time>
      </trkpt>
      <trkpt lat="45.04851" lon="4.13886">
        <ele>1345</ele>
        <time>2022-05-08T15:48:06Z</time>
      </trkpt>
      <trkpt lat="45.04846" lon="4.13896">
        <ele>1344</ele>
        <time>2022-05-08T15:48:06Z</time>
      </trkpt>
      <trkpt lat="45.04825" lon="4.13922">
        <ele>1344</ele>
        <time>2022-05-08T15:48:06Z</time>
      </trkpt>
      <trkpt lat="45.04809" lon="4.13934">
        <ele>1343</ele>
        <time>2022-05-08T15:48:06Z</time>
      </trkpt>
      <trkpt lat="45.04796" lon="4.13952">
        <ele>1343</ele>
        <time>2022-05-08T15:48:06Z</time>
      </trkpt>
      <trkpt lat="45.04789" lon="4.13957">
        <ele>1343</ele>
        <time>2022-05-08T15:48:06Z</time>
      </trkpt>
      <trkpt lat="45.04783" lon="4.13965">
        <ele>1342</ele>
        <time>2022-05-08T15:48:06Z</time>
      </trkpt>
      <trkpt lat="45.04775" lon="4.13987">
        <ele>1342</ele>
        <time>2022-05-08T15:48:06Z</time>
      </trkpt>
      <trkpt lat="45.04775" lon="4.13987">
        <ele>1340</ele>
        <time>2022-05-08T15:48:06Z</time>
      </trkpt>
      <trkpt lat="45.04764" lon="4.14008">
        <ele>1339</ele>
        <time>2022-05-08T15:48:06Z</time>
      </trkpt>
      <trkpt lat="45.04762" lon="4.14023">
        <ele>1339</ele>
        <time>2022-05-08T15:48:06Z</time>
      </trkpt>
      <trkpt lat="45.04794" lon="4.14051">
        <ele>1338</ele>
        <time>2022-05-08T15:48:06Z</time>
      </trkpt>
      <trkpt lat="45.04818" lon="4.14063">
        <ele>1337</ele>
        <time>2022-05-08T15:48:06Z</time>
      </trkpt>
      <trkpt lat="45.04806" lon="4.14082">
        <ele>1336</ele>
        <time>2022-05-08T15:48:06Z</time>
      </trkpt>
      <trkpt lat="45.04806" lon="4.14082">
        <ele>1332</ele>
        <time>2022-05-08T15:48:06Z</time>
      </trkpt>
      <trkpt lat="45.04515" lon="4.14597">
        <ele>1337</ele>
        <time>2022-05-08T15:48:06Z</time>
      </trkpt>
      <trkpt lat="45.04515" lon="4.14597">
        <ele>1343</ele>
        <time>2022-05-08T15:48:06Z</time>
      </trkpt>
      <trkpt lat="45.04281" lon="4.15009">
        <ele>1332</ele>
        <time>2022-05-08T15:48:06Z</time>
      </trkpt>
      <trkpt lat="45.04281" lon="4.15009">
        <ele>1323</ele>
        <time>2022-05-08T15:48:06Z</time>
      </trkpt>
      <trkpt lat="45.04272" lon="4.15029">
        <ele>1322</ele>
        <time>2022-05-08T15:48:06Z</time>
      </trkpt>
      <trkpt lat="45.04252" lon="4.15046">
        <ele>1322</ele>
        <time>2022-05-08T15:48:06Z</time>
      </trkpt>
      <trkpt lat="45.0425" lon="4.15057">
        <ele>1321</ele>
        <time>2022-05-08T15:48:06Z</time>
      </trkpt>
      <trkpt lat="45.04237" lon="4.15069">
        <ele>1321</ele>
        <time>2022-05-08T15:48:06Z</time>
      </trkpt>
      <trkpt lat="45.04207" lon="4.15069">
        <ele>1321</ele>
        <time>2022-05-08T15:48:06Z</time>
      </trkpt>
      <trkpt lat="45.0418" lon="4.15063">
        <ele>1321</ele>
        <time>2022-05-08T15:48:06Z</time>
      </trkpt>
      <trkpt lat="45.04167" lon="4.15065">
        <ele>1321</ele>
        <time>2022-05-08T15:48:06Z</time>
      </trkpt>
      <trkpt lat="45.04158" lon="4.15064">
        <ele>1320</ele>
        <time>2022-05-08T15:48:06Z</time>
      </trkpt>
      <trkpt lat="45.04151" lon="4.15059">
        <ele>1320</ele>
        <time>2022-05-08T15:48:06Z</time>
      </trkpt>
      <trkpt lat="45.04142" lon="4.15055">
        <ele>1321</ele>
        <time>2022-05-08T15:48:06Z</time>
      </trkpt>
      <trkpt lat="45.04132" lon="4.15056">
        <ele>1321</ele>
        <time>2022-05-08T15:48:06Z</time>
      </trkpt>
      <trkpt lat="45.04117" lon="4.15062">
        <ele>1321</ele>
        <time>2022-05-08T15:48:06Z</time>
      </trkpt>
      <trkpt lat="45.04105" lon="4.15059">
        <ele>1321</ele>
        <time>2022-05-08T15:48:06Z</time>
      </trkpt>
      <trkpt lat="45.0409" lon="4.15061">
        <ele>1321</ele>
        <time>2022-05-08T15:48:06Z</time>
      </trkpt>
      <trkpt lat="45.0408" lon="4.15072">
        <ele>1322</ele>
        <time>2022-05-08T15:48:06Z</time>
      </trkpt>
      <trkpt lat="45.0407" lon="4.15097">
        <ele>1322</ele>
        <time>2022-05-08T15:48:06Z</time>
      </trkpt>
      <trkpt lat="45.04026" lon="4.1516">
        <ele>1322</ele>
        <time>2022-05-08T15:48:06Z</time>
      </trkpt>
      <trkpt lat="45.04018" lon="4.15166">
        <ele>1322</ele>
        <time>2022-05-08T15:48:06Z</time>
      </trkpt>
      <trkpt lat="45.04008" lon="4.15167">
        <ele>1322</ele>
        <time>2022-05-08T15:48:06Z</time>
      </trkpt>
      <trkpt lat="45.03995" lon="4.15164">
        <ele>1322</ele>
        <time>2022-05-08T15:48:06Z</time>
      </trkpt>
      <trkpt lat="45.03986" lon="4.15168">
        <ele>1322</ele>
        <time>2022-05-08T15:48:06Z</time>
      </trkpt>
      <trkpt lat="45.03982" lon="4.15177">
        <ele>1322</ele>
        <time>2022-05-08T15:48:06Z</time>
      </trkpt>
      <trkpt lat="45.03954" lon="4.15183">
        <ele>1322</ele>
        <time>2022-05-08T15:48:06Z</time>
      </trkpt>
      <trkpt lat="45.03915" lon="4.15239">
        <ele>1321</ele>
        <time>2022-05-08T15:48:06Z</time>
      </trkpt>
      <trkpt lat="45.03884" lon="4.15249">
        <ele>1320</ele>
        <time>2022-05-08T15:48:06Z</time>
      </trkpt>
      <trkpt lat="45.03884" lon="4.15249">
        <ele>1316</ele>
        <time>2022-05-08T15:48:06Z</time>
      </trkpt>
      <trkpt lat="45.03897" lon="4.15324">
        <ele>1315</ele>
        <time>2022-05-08T15:48:06Z</time>
      </trkpt>
      <trkpt lat="45.0386" lon="4.15365">
        <ele>1312</ele>
        <time>2022-05-08T15:48:06Z</time>
      </trkpt>
      <trkpt lat="45.03864" lon="4.15377">
        <ele>1300</ele>
        <time>2022-05-08T15:48:06Z</time>
      </trkpt>
      <trkpt lat="45.03874" lon="4.15401">
        <ele>1299</ele>
        <time>2022-05-08T15:48:06Z</time>
      </trkpt>
      <trkpt lat="45.03872" lon="4.15415">
        <ele>1298</ele>
        <time>2022-05-08T15:48:06Z</time>
      </trkpt>
      <trkpt lat="45.03874" lon="4.15428">
        <ele>1296</ele>
        <time>2022-05-08T15:48:06Z</time>
      </trkpt>
      <trkpt lat="45.03878" lon="4.15439">
        <ele>1295</ele>
        <time>2022-05-08T15:48:06Z</time>
      </trkpt>
      <trkpt lat="45.03875" lon="4.15451">
        <ele>1293</ele>
        <time>2022-05-08T15:48:06Z</time>
      </trkpt>
      <trkpt lat="45.03869" lon="4.15459">
        <ele>1291</ele>
        <time>2022-05-08T15:48:06Z</time>
      </trkpt>
      <trkpt lat="45.03869" lon="4.15459">
        <ele>1283</ele>
        <time>2022-05-08T15:48:06Z</time>
      </trkpt>
      <trkpt lat="45.03864" lon="4.15469">
        <ele>1282</ele>
        <time>2022-05-08T15:48:06Z</time>
      </trkpt>
      <trkpt lat="45.03859" lon="4.15494">
        <ele>1282</ele>
        <time>2022-05-08T15:48:06Z</time>
      </trkpt>
      <trkpt lat="45.03853" lon="4.15506">
        <ele>1281</ele>
        <time>2022-05-08T15:48:06Z</time>
      </trkpt>
      <trkpt lat="45.0385" lon="4.15533">
        <ele>1279</ele>
        <time>2022-05-08T15:48:06Z</time>
      </trkpt>
      <trkpt lat="45.03846" lon="4.15546">
        <ele>1278</ele>
        <time>2022-05-08T15:48:06Z</time>
      </trkpt>
      <trkpt lat="45.03834" lon="4.15567">
        <ele>1276</ele>
        <time>2022-05-08T15:48:06Z</time>
      </trkpt>
      <trkpt lat="45.0383" lon="4.15581">
        <ele>1274</ele>
        <time>2022-05-08T15:48:06Z</time>
      </trkpt>
      <trkpt lat="45.0383" lon="4.15605">
        <ele>1272</ele>
        <time>2022-05-08T15:48:06Z</time>
      </trkpt>
      <trkpt lat="45.03833" lon="4.15617">
        <ele>1270</ele>
        <time>2022-05-08T15:48:06Z</time>
      </trkpt>
      <trkpt lat="45.03823" lon="4.15663">
        <ele>1268</ele>
        <time>2022-05-08T15:48:06Z</time>
      </trkpt>
      <trkpt lat="45.03802" lon="4.1571">
        <ele>1264</ele>
        <time>2022-05-08T15:48:06Z</time>
      </trkpt>
      <trkpt lat="45.03802" lon="4.1571">
        <ele>1247</ele>
        <time>2022-05-08T15:48:06Z</time>
      </trkpt>
      <trkpt lat="45.03801" lon="4.15722">
        <ele>1247</ele>
        <time>2022-05-08T15:48:06Z</time>
      </trkpt>
      <trkpt lat="45.03775" lon="4.15803">
        <ele>1245</ele>
        <time>2022-05-08T15:48:06Z</time>
      </trkpt>
      <trkpt lat="45.03763" lon="4.1582">
        <ele>1243</ele>
        <time>2022-05-08T15:48:06Z</time>
      </trkpt>
      <trkpt lat="45.03757" lon="4.15833">
        <ele>1242</ele>
        <time>2022-05-08T15:48:06Z</time>
      </trkpt>
      <trkpt lat="45.03735" lon="4.15826">
        <ele>1241</ele>
        <time>2022-05-08T15:48:06Z</time>
      </trkpt>
      <trkpt lat="45.03735" lon="4.15826">
        <ele>1235</ele>
        <time>2022-05-08T15:48:06Z</time>
      </trkpt>
      <trkpt lat="45.03683" lon="4.15785">
        <ele>1234</ele>
        <time>2022-05-08T15:48:06Z</time>
      </trkpt>
      <trkpt lat="45.0366" lon="4.15761">
        <ele>1234</ele>
        <time>2022-05-08T15:48:06Z</time>
      </trkpt>
      <trkpt lat="45.03669" lon="4.15703">
        <ele>1235</ele>
        <time>2022-05-08T15:48:06Z</time>
      </trkpt>
      <trkpt lat="45.03669" lon="4.15703">
        <ele>1239</ele>
        <time>2022-05-08T15:48:06Z</time>
      </trkpt>
      <trkpt lat="45.03674" lon="4.15665">
        <ele>1240</ele>
        <time>2022-05-08T15:48:06Z</time>
      </trkpt>
      <trkpt lat="45.03671" lon="4.15635">
        <ele>1241</ele>
        <time>2022-05-08T15:48:06Z</time>
      </trkpt>
      <trkpt lat="45.03649" lon="4.15566">
        <ele>1243</ele>
        <time>2022-05-08T15:48:06Z</time>
      </trkpt>
      <trkpt lat="45.03649" lon="4.15566">
        <ele>1251</ele>
        <time>2022-05-08T15:48:06Z</time>
      </trkpt>
      <trkpt lat="45.03596" lon="4.15526">
        <ele>1253</ele>
        <time>2022-05-08T15:48:06Z</time>
      </trkpt>
      <trkpt lat="45.03609" lon="4.15518">
        <ele>1255</ele>
        <time>2022-05-08T15:48:06Z</time>
      </trkpt>
      <trkpt lat="45.03641" lon="4.15519">
        <ele>1257</ele>
        <time>2022-05-08T15:48:06Z</time>
      </trkpt>
      <trkpt lat="45.03641" lon="4.15519">
        <ele>1266</ele>
        <time>2022-05-08T15:48:06Z</time>
      </trkpt>
      <trkpt lat="45.0366" lon="4.15517">
        <ele>1266</ele>
        <time>2022-05-08T15:48:06Z</time>
      </trkpt>
      <trkpt lat="45.03665" lon="4.15508">
        <ele>1266</ele>
        <time>2022-05-08T15:48:06Z</time>
      </trkpt>
      <trkpt lat="45.03671" lon="4.15502">
        <ele>1267</ele>
        <time>2022-05-08T15:48:06Z</time>
      </trkpt>
      <trkpt lat="45.03682" lon="4.15476">
        <ele>1267</ele>
        <time>2022-05-08T15:48:06Z</time>
      </trkpt>
      <trkpt lat="45.03692" lon="4.15458">
        <ele>1268</ele>
        <time>2022-05-08T15:48:06Z</time>
      </trkpt>
      <trkpt lat="45.03699" lon="4.15438">
        <ele>1268</ele>
        <time>2022-05-08T15:48:06Z</time>
      </trkpt>
      <trkpt lat="45.03699" lon="4.15438">
        <ele>1269</ele>
        <time>2022-05-08T15:48:06Z</time>
      </trkpt>
      <trkpt lat="45.03687" lon="4.15468">
        <ele>1269</ele>
        <time>2022-05-08T15:48:06Z</time>
      </trkpt>
      <trkpt lat="45.03677" lon="4.15485">
        <ele>1269</ele>
        <time>2022-05-08T15:48:06Z</time>
      </trkpt>
      <trkpt lat="45.03673" lon="4.15499">
        <ele>1269</ele>
        <time>2022-05-08T15:48:06Z</time>
      </trkpt>
      <trkpt lat="45.03662" lon="4.15512">
        <ele>1269</ele>
        <time>2022-05-08T15:48:06Z</time>
      </trkpt>
      <trkpt lat="45.0368" lon="4.15517">
        <ele>1268</ele>
        <time>2022-05-08T15:48:06Z</time>
      </trkpt>
      <trkpt lat="45.03685" lon="4.15526">
        <ele>1262</ele>
        <time>2022-05-08T15:48:06Z</time>
      </trkpt>
      <trkpt lat="45.03687" lon="4.15536">
        <ele>1262</ele>
        <time>2022-05-08T15:48:06Z</time>
      </trkpt>
      <trkpt lat="45.03694" lon="4.15543">
        <ele>1261</ele>
        <time>2022-05-08T15:48:06Z</time>
      </trkpt>
      <trkpt lat="45.03696" lon="4.15557">
        <ele>1261</ele>
        <time>2022-05-08T15:48:06Z</time>
      </trkpt>
      <trkpt lat="45.03695" lon="4.15567">
        <ele>1260</ele>
        <time>2022-05-08T15:48:06Z</time>
      </trkpt>
      <trkpt lat="45.03683" lon="4.15573">
        <ele>1259</ele>
        <time>2022-05-08T15:48:06Z</time>
      </trkpt>
      <trkpt lat="45.03662" lon="4.15565">
        <ele>1258</ele>
        <time>2022-05-08T15:48:06Z</time>
      </trkpt>
      <trkpt lat="45.0365" lon="4.15564">
        <ele>1257</ele>
        <time>2022-05-08T15:48:06Z</time>
      </trkpt>
      <trkpt lat="45.03653" lon="4.15576">
        <ele>1257</ele>
        <time>2022-05-08T15:48:06Z</time>
      </trkpt>
      <trkpt lat="45.03671" lon="4.15635">
        <ele>1255</ele>
        <time>2022-05-08T15:48:06Z</time>
      </trkpt>
      <trkpt lat="45.03674" lon="4.15665">
        <ele>1252</ele>
        <time>2022-05-08T15:48:06Z</time>
      </trkpt>
      <trkpt lat="45.0366" lon="4.15761">
        <ele>1248</ele>
        <time>2022-05-08T15:48:06Z</time>
      </trkpt>
      <trkpt lat="45.03623" lon="4.15755">
        <ele>1244</ele>
        <time>2022-05-08T15:48:06Z</time>
      </trkpt>
      <trkpt lat="45.03623" lon="4.15755">
        <ele>1232</ele>
        <time>2022-05-08T15:48:06Z</time>
      </trkpt>
      <trkpt lat="45.03581" lon="4.15748">
        <ele>1231</ele>
        <time>2022-05-08T15:48:06Z</time>
      </trkpt>
      <trkpt lat="45.03572" lon="4.15749">
        <ele>1231</ele>
        <time>2022-05-08T15:48:06Z</time>
      </trkpt>
      <trkpt lat="45.03369" lon="4.1552">
        <ele>1232</ele>
        <time>2022-05-08T15:48:06Z</time>
      </trkpt>
      <trkpt lat="45.03344" lon="4.15476">
        <ele>1232</ele>
        <time>2022-05-08T15:48:06Z</time>
      </trkpt>
      <trkpt lat="45.03344" lon="4.15476">
        <ele>1234</ele>
        <time>2022-05-08T15:48:06Z</time>
      </trkpt>
      <trkpt lat="45.03312" lon="4.15425">
        <ele>1233</ele>
        <time>2022-05-08T15:48:06Z</time>
      </trkpt>
      <trkpt lat="45.03278" lon="4.15394">
        <ele>1234</ele>
        <time>2022-05-08T15:48:06Z</time>
      </trkpt>
      <trkpt lat="45.0315" lon="4.15194">
        <ele>1236</ele>
        <time>2022-05-08T15:48:06Z</time>
      </trkpt>
      <trkpt lat="45.03137" lon="4.15142">
        <ele>1238</ele>
        <time>2022-05-08T15:48:06Z</time>
      </trkpt>
      <trkpt lat="45.03098" lon="4.14927">
        <ele>1244</ele>
        <time>2022-05-08T15:48:06Z</time>
      </trkpt>
      <trkpt lat="45.03098" lon="4.14927">
        <ele>1254</ele>
        <time>2022-05-08T15:48:06Z</time>
      </trkpt>
      <trkpt lat="45.03075" lon="4.1484">
        <ele>1255</ele>
        <time>2022-05-08T15:48:06Z</time>
      </trkpt>
      <trkpt lat="45.03115" lon="4.14769">
        <ele>1257</ele>
        <time>2022-05-08T15:48:06Z</time>
      </trkpt>
      <trkpt lat="45.03078" lon="4.14621">
        <ele>1260</ele>
        <time>2022-05-08T15:48:06Z</time>
      </trkpt>
      <trkpt lat="45.03077" lon="4.14586">
        <ele>1261</ele>
        <time>2022-05-08T15:48:06Z</time>
      </trkpt>
      <trkpt lat="45.03088" lon="4.14447">
        <ele>1263</ele>
        <time>2022-05-08T15:48:06Z</time>
      </trkpt>
      <trkpt lat="45.03095" lon="4.1444">
        <ele>1264</ele>
        <time>2022-05-08T15:48:06Z</time>
      </trkpt>
      <trkpt lat="45.03123" lon="4.14378">
        <ele>1265</ele>
        <time>2022-05-08T15:48:06Z</time>
      </trkpt>
      <trkpt lat="45.03123" lon="4.14378">
        <ele>1267</ele>
        <time>2022-05-08T15:48:06Z</time>
      </trkpt>
      <trkpt lat="45.0314" lon="4.14346">
        <ele>1267</ele>
        <time>2022-05-08T15:48:06Z</time>
      </trkpt>
      <trkpt lat="45.03165" lon="4.14312">
        <ele>1268</ele>
        <time>2022-05-08T15:48:06Z</time>
      </trkpt>
      <trkpt lat="45.03271" lon="4.14049">
        <ele>1271</ele>
        <time>2022-05-08T15:48:06Z</time>
      </trkpt>
      <trkpt lat="45.03284" lon="4.13976">
        <ele>1272</ele>
        <time>2022-05-08T15:48:06Z</time>
      </trkpt>
      <trkpt lat="45.03286" lon="4.13957">
        <ele>1272</ele>
        <time>2022-05-08T15:48:06Z</time>
      </trkpt>
      <trkpt lat="45.03299" lon="4.13939">
        <ele>1273</ele>
        <time>2022-05-08T15:48:06Z</time>
      </trkpt>
      <trkpt lat="45.03326" lon="4.13922">
        <ele>1274</ele>
        <time>2022-05-08T15:48:06Z</time>
      </trkpt>
      <trkpt lat="45.03345" lon="4.13895">
        <ele>1275</ele>
        <time>2022-05-08T15:48:06Z</time>
      </trkpt>
      <trkpt lat="45.03349" lon="4.13886">
        <ele>1276</ele>
        <time>2022-05-08T15:48:06Z</time>
      </trkpt>
      <trkpt lat="45.03409" lon="4.1381">
        <ele>1278</ele>
        <time>2022-05-08T15:48:06Z</time>
      </trkpt>
      <trkpt lat="45.03435" lon="4.13734">
        <ele>1278</ele>
        <time>2022-05-08T15:48:06Z</time>
      </trkpt>
      <trkpt lat="45.03435" lon="4.13734">
        <ele>1280</ele>
        <time>2022-05-08T15:48:06Z</time>
      </trkpt>
      <trkpt lat="45.03466" lon="4.13688">
        <ele>1280</ele>
        <time>2022-05-08T15:48:06Z</time>
      </trkpt>
      <trkpt lat="45.03483" lon="4.13654">
        <ele>1279</ele>
        <time>2022-05-08T15:48:06Z</time>
      </trkpt>
      <trkpt lat="45.03516" lon="4.13619">
        <ele>1278</ele>
        <time>2022-05-08T15:48:06Z</time>
      </trkpt>
      <trkpt lat="45.03545" lon="4.13596">
        <ele>1278</ele>
        <time>2022-05-08T15:48:06Z</time>
      </trkpt>
      <trkpt lat="45.03563" lon="4.13593">
        <ele>1278</ele>
        <time>2022-05-08T15:48:06Z</time>
      </trkpt>
      <trkpt lat="45.0357" lon="4.13593">
        <ele>1279</ele>
        <time>2022-05-08T15:48:06Z</time>
      </trkpt>
      <trkpt lat="45.03579" lon="4.13596">
        <ele>1279</ele>
        <time>2022-05-08T15:48:06Z</time>
      </trkpt>
      <trkpt lat="45.0361" lon="4.13634">
        <ele>1280</ele>
        <time>2022-05-08T15:48:06Z</time>
      </trkpt>
      <trkpt lat="45.03619" lon="4.13639">
        <ele>1281</ele>
        <time>2022-05-08T15:48:06Z</time>
      </trkpt>
      <trkpt lat="45.03639" lon="4.13638">
        <ele>1282</ele>
        <time>2022-05-08T15:48:06Z</time>
      </trkpt>
      <trkpt lat="45.0365" lon="4.13628">
        <ele>1283</ele>
        <time>2022-05-08T15:48:06Z</time>
      </trkpt>
      <trkpt lat="45.03674" lon="4.13618">
        <ele>1283</ele>
        <time>2022-05-08T15:48:06Z</time>
      </trkpt>
      <trkpt lat="45.0371" lon="4.13593">
        <ele>1284</ele>
        <time>2022-05-08T15:48:06Z</time>
      </trkpt>
      <trkpt lat="45.0369" lon="4.13542">
        <ele>1284</ele>
        <time>2022-05-08T15:48:06Z</time>
      </trkpt>
      <trkpt lat="45.03685" lon="4.13521">
        <ele>1284</ele>
        <time>2022-05-08T15:48:06Z</time>
      </trkpt>
      <trkpt lat="45.03678" lon="4.13438">
        <ele>1282</ele>
        <time>2022-05-08T15:48:06Z</time>
      </trkpt>
      <trkpt lat="45.03672" lon="4.13412">
        <ele>1281</ele>
        <time>2022-05-08T15:48:06Z</time>
      </trkpt>
      <trkpt lat="45.03672" lon="4.13412">
        <ele>1274</ele>
        <time>2022-05-08T15:48:06Z</time>
      </trkpt>
      <trkpt lat="45.03654" lon="4.13364">
        <ele>1273</ele>
        <time>2022-05-08T15:48:06Z</time>
      </trkpt>
      <trkpt lat="45.03647" lon="4.13315">
        <ele>1272</ele>
        <time>2022-05-08T15:48:06Z</time>
      </trkpt>
      <trkpt lat="45.03637" lon="4.13284">
        <ele>1270</ele>
        <time>2022-05-08T15:48:06Z</time>
      </trkpt>
      <trkpt lat="45.03531" lon="4.13136">
        <ele>1263</ele>
        <time>2022-05-08T15:48:06Z</time>
      </trkpt>
      <trkpt lat="45.03519" lon="4.13125">
        <ele>1258</ele>
        <time>2022-05-08T15:48:06Z</time>
      </trkpt>
      <trkpt lat="45.0351" lon="4.13108">
        <ele>1255</ele>
        <time>2022-05-08T15:48:06Z</time>
      </trkpt>
      <trkpt lat="45.03466" lon="4.12999">
        <ele>1250</ele>
        <time>2022-05-08T15:48:06Z</time>
      </trkpt>
      <trkpt lat="45.03529" lon="4.12957">
        <ele>1247</ele>
        <time>2022-05-08T15:48:06Z</time>
      </trkpt>
      <trkpt lat="45.03529" lon="4.12957">
        <ele>1240</ele>
        <time>2022-05-08T15:48:06Z</time>
      </trkpt>
      <trkpt lat="45.03589" lon="4.12926">
        <ele>1242</ele>
        <time>2022-05-08T15:48:06Z</time>
      </trkpt>
      <trkpt lat="45.03611" lon="4.12904">
        <ele>1243</ele>
        <time>2022-05-08T15:48:06Z</time>
      </trkpt>
      <trkpt lat="45.03681" lon="4.12812">
        <ele>1245</ele>
        <time>2022-05-08T15:48:06Z</time>
      </trkpt>
      <trkpt lat="45.03617" lon="4.12732">
        <ele>1246</ele>
        <time>2022-05-08T15:48:06Z</time>
      </trkpt>
      <trkpt lat="45.03608" lon="4.12724">
        <ele>1245</ele>
        <time>2022-05-08T15:48:06Z</time>
      </trkpt>
      <trkpt lat="45.03572" lon="4.12702">
        <ele>1245</ele>
        <time>2022-05-08T15:48:06Z</time>
      </trkpt>
      <trkpt lat="45.03556" lon="4.12691">
        <ele>1243</ele>
        <time>2022-05-08T15:48:06Z</time>
      </trkpt>
      <trkpt lat="45.03556" lon="4.12691">
        <ele>1240</ele>
        <time>2022-05-08T15:48:06Z</time>
      </trkpt>
      <trkpt lat="45.03539" lon="4.12663">
        <ele>1239</ele>
        <time>2022-05-08T15:48:06Z</time>
      </trkpt>
      <trkpt lat="45.03508" lon="4.126">
        <ele>1239</ele>
        <time>2022-05-08T15:48:06Z</time>
      </trkpt>
      <trkpt lat="45.03484" lon="4.12572">
        <ele>1238</ele>
        <time>2022-05-08T15:48:06Z</time>
      </trkpt>
      <trkpt lat="45.03454" lon="4.12544">
        <ele>1237</ele>
        <time>2022-05-08T15:48:06Z</time>
      </trkpt>
      <trkpt lat="45.0342" lon="4.12491">
        <ele>1235</ele>
        <time>2022-05-08T15:48:06Z</time>
      </trkpt>
      <trkpt lat="45.03387" lon="4.12486">
        <ele>1233</ele>
        <time>2022-05-08T15:48:06Z</time>
      </trkpt>
      <trkpt lat="45.03368" lon="4.12468">
        <ele>1232</ele>
        <time>2022-05-08T15:48:06Z</time>
      </trkpt>
      <trkpt lat="45.03348" lon="4.12431">
        <ele>1230</ele>
        <time>2022-05-08T15:48:06Z</time>
      </trkpt>
      <trkpt lat="45.03344" lon="4.12414">
        <ele>1229</ele>
        <time>2022-05-08T15:48:06Z</time>
      </trkpt>
      <trkpt lat="45.03342" lon="4.12376">
        <ele>1228</ele>
        <time>2022-05-08T15:48:06Z</time>
      </trkpt>
      <trkpt lat="45.03336" lon="4.12358">
        <ele>1227</ele>
        <time>2022-05-08T15:48:06Z</time>
      </trkpt>
      <trkpt lat="45.03317" lon="4.12335">
        <ele>1226</ele>
        <time>2022-05-08T15:48:06Z</time>
      </trkpt>
      <trkpt lat="45.03317" lon="4.12335">
        <ele>1222</ele>
        <time>2022-05-08T15:48:06Z</time>
      </trkpt>
      <trkpt lat="45.03286" lon="4.12297">
        <ele>1221</ele>
        <time>2022-05-08T15:48:06Z</time>
      </trkpt>
      <trkpt lat="45.03265" lon="4.12285">
        <ele>1220</ele>
        <time>2022-05-08T15:48:06Z</time>
      </trkpt>
      <trkpt lat="45.03204" lon="4.12204">
        <ele>1219</ele>
        <time>2022-05-08T15:48:06Z</time>
      </trkpt>
      <trkpt lat="45.03201" lon="4.12193">
        <ele>1218</ele>
        <time>2022-05-08T15:48:06Z</time>
      </trkpt>
      <trkpt lat="45.03236" lon="4.12118">
        <ele>1218</ele>
        <time>2022-05-08T15:48:06Z</time>
      </trkpt>
      <trkpt lat="45.03282" lon="4.1206">
        <ele>1221</ele>
        <time>2022-05-08T15:48:06Z</time>
      </trkpt>
      <trkpt lat="45.03281" lon="4.12036">
        <ele>1223</ele>
        <time>2022-05-08T15:48:06Z</time>
      </trkpt>
      <trkpt lat="45.03268" lon="4.11989">
        <ele>1231</ele>
        <time>2022-05-08T15:48:06Z</time>
      </trkpt>
      <trkpt lat="45.03268" lon="4.11978">
        <ele>1231</ele>
        <time>2022-05-08T15:48:06Z</time>
      </trkpt>
      <trkpt lat="45.03283" lon="4.11932">
        <ele>1231</ele>
        <time>2022-05-08T15:48:06Z</time>
      </trkpt>
      <trkpt lat="45.0328" lon="4.11921">
        <ele>1232</ele>
        <time>2022-05-08T15:48:06Z</time>
      </trkpt>
      <trkpt lat="45.03235" lon="4.1189">
        <ele>1231</ele>
        <time>2022-05-08T15:48:06Z</time>
      </trkpt>
      <trkpt lat="45.03221" lon="4.11855">
        <ele>1230</ele>
        <time>2022-05-08T15:48:06Z</time>
      </trkpt>
      <trkpt lat="45.03218" lon="4.11843">
        <ele>1228</ele>
        <time>2022-05-08T15:48:06Z</time>
      </trkpt>
      <trkpt lat="45.03199" lon="4.11818">
        <ele>1227</ele>
        <time>2022-05-08T15:48:06Z</time>
      </trkpt>
      <trkpt lat="45.03195" lon="4.11769">
        <ele>1225</ele>
        <time>2022-05-08T15:48:06Z</time>
      </trkpt>
      <trkpt lat="45.03195" lon="4.11769">
        <ele>1219</ele>
        <time>2022-05-08T15:48:06Z</time>
      </trkpt>
      <trkpt lat="45.03199" lon="4.11706">
        <ele>1219</ele>
        <time>2022-05-08T15:48:06Z</time>
      </trkpt>
      <trkpt lat="45.03195" lon="4.1169">
        <ele>1219</ele>
        <time>2022-05-08T15:48:06Z</time>
      </trkpt>
      <trkpt lat="45.0318" lon="4.11681">
        <ele>1218</ele>
        <time>2022-05-08T15:48:06Z</time>
      </trkpt>
      <trkpt lat="45.03178" lon="4.11666">
        <ele>1218</ele>
        <time>2022-05-08T15:48:06Z</time>
      </trkpt>
      <trkpt lat="45.0318" lon="4.11651">
        <ele>1217</ele>
        <time>2022-05-08T15:48:06Z</time>
      </trkpt>
      <trkpt lat="45.032" lon="4.11615">
        <ele>1217</ele>
        <time>2022-05-08T15:48:06Z</time>
      </trkpt>
      <trkpt lat="45.03204" lon="4.1159">
        <ele>1217</ele>
        <time>2022-05-08T15:48:06Z</time>
      </trkpt>
      <trkpt lat="45.03206" lon="4.11562">
        <ele>1218</ele>
        <time>2022-05-08T15:48:06Z</time>
      </trkpt>
      <trkpt lat="45.03229" lon="4.1148">
        <ele>1218</ele>
        <time>2022-05-08T15:48:06Z</time>
      </trkpt>
      <trkpt lat="45.03238" lon="4.11456">
        <ele>1219</ele>
        <time>2022-05-08T15:48:06Z</time>
      </trkpt>
      <trkpt lat="45.0324" lon="4.11443">
        <ele>1219</ele>
        <time>2022-05-08T15:48:06Z</time>
      </trkpt>
      <trkpt lat="45.03242" lon="4.11417">
        <ele>1219</ele>
        <time>2022-05-08T15:48:06Z</time>
      </trkpt>
      <trkpt lat="45.03244" lon="4.11404">
        <ele>1219</ele>
        <time>2022-05-08T15:48:06Z</time>
      </trkpt>
      <trkpt lat="45.03257" lon="4.11367">
        <ele>1218</ele>
        <time>2022-05-08T15:48:06Z</time>
      </trkpt>
      <trkpt lat="45.0326" lon="4.11341">
        <ele>1218</ele>
        <time>2022-05-08T15:48:06Z</time>
      </trkpt>
      <trkpt lat="45.0331" lon="4.11282">
        <ele>1217</ele>
        <time>2022-05-08T15:48:06Z</time>
      </trkpt>
      <trkpt lat="45.0332" lon="4.11259">
        <ele>1217</ele>
        <time>2022-05-08T15:48:06Z</time>
      </trkpt>
      <trkpt lat="45.03326" lon="4.11251">
        <ele>1217</ele>
        <time>2022-05-08T15:48:06Z</time>
      </trkpt>
      <trkpt lat="45.03344" lon="4.1124">
        <ele>1217</ele>
        <time>2022-05-08T15:48:06Z</time>
      </trkpt>
      <trkpt lat="45.03348" lon="4.1123">
        <ele>1217</ele>
        <time>2022-05-08T15:48:06Z</time>
      </trkpt>
      <trkpt lat="45.03352" lon="4.11217">
        <ele>1217</ele>
        <time>2022-05-08T15:48:06Z</time>
      </trkpt>
      <trkpt lat="45.03357" lon="4.11206">
        <ele>1216</ele>
        <time>2022-05-08T15:48:06Z</time>
      </trkpt>
      <trkpt lat="45.03404" lon="4.11159">
        <ele>1216</ele>
        <time>2022-05-08T15:48:06Z</time>
      </trkpt>
      <trkpt lat="45.0341" lon="4.1115">
        <ele>1215</ele>
        <time>2022-05-08T15:48:06Z</time>
      </trkpt>
      <trkpt lat="45.03439" lon="4.11132">
        <ele>1214</ele>
        <time>2022-05-08T15:48:06Z</time>
      </trkpt>
      <trkpt lat="45.03483" lon="4.11086">
        <ele>1213</ele>
        <time>2022-05-08T15:48:06Z</time>
      </trkpt>
      <trkpt lat="45.03501" lon="4.11081">
        <ele>1212</ele>
        <time>2022-05-08T15:48:06Z</time>
      </trkpt>
      <trkpt lat="45.0351" lon="4.11075">
        <ele>1211</ele>
        <time>2022-05-08T15:48:06Z</time>
      </trkpt>
      <trkpt lat="45.03537" lon="4.11072">
        <ele>1211</ele>
        <time>2022-05-08T15:48:06Z</time>
      </trkpt>
      <trkpt lat="45.03557" lon="4.11041">
        <ele>1210</ele>
        <time>2022-05-08T15:48:06Z</time>
      </trkpt>
      <trkpt lat="45.0358" lon="4.1102">
        <ele>1210</ele>
        <time>2022-05-08T15:48:06Z</time>
      </trkpt>
      <trkpt lat="45.03651" lon="4.10997">
        <ele>1210</ele>
        <time>2022-05-08T15:48:06Z</time>
      </trkpt>
      <trkpt lat="45.03677" lon="4.10999">
        <ele>1210</ele>
        <time>2022-05-08T15:48:06Z</time>
      </trkpt>
      <trkpt lat="45.03779" lon="4.10931">
        <ele>1208</ele>
        <time>2022-05-08T15:48:06Z</time>
      </trkpt>
      <trkpt lat="45.03823" lon="4.10923">
        <ele>1205</ele>
        <time>2022-05-08T15:48:06Z</time>
      </trkpt>
      <trkpt lat="45.03878" lon="4.10893">
        <ele>1202</ele>
        <time>2022-05-08T15:48:06Z</time>
      </trkpt>
      <trkpt lat="45.03878" lon="4.10893">
        <ele>1192</ele>
        <time>2022-05-08T15:48:06Z</time>
      </trkpt>
      <trkpt lat="45.03977" lon="4.10862">
        <ele>1190</ele>
        <time>2022-05-08T15:48:06Z</time>
      </trkpt>
      <trkpt lat="45.03994" lon="4.10861">
        <ele>1188</ele>
        <time>2022-05-08T15:48:06Z</time>
      </trkpt>
      <trkpt lat="45.04012" lon="4.10864">
        <ele>1187</ele>
        <time>2022-05-08T15:48:06Z</time>
      </trkpt>
      <trkpt lat="45.04029" lon="4.10857">
        <ele>1179</ele>
        <time>2022-05-08T15:48:06Z</time>
      </trkpt>
      <trkpt lat="45.04037" lon="4.1085">
        <ele>1179</ele>
        <time>2022-05-08T15:48:06Z</time>
      </trkpt>
      <trkpt lat="45.0406" lon="4.10865">
        <ele>1179</ele>
        <time>2022-05-08T15:48:06Z</time>
      </trkpt>
      <trkpt lat="45.0408" lon="4.10862">
        <ele>1179</ele>
        <time>2022-05-08T15:48:06Z</time>
      </trkpt>
      <trkpt lat="45.04115" lon="4.10874">
        <ele>1178</ele>
        <time>2022-05-08T15:48:06Z</time>
      </trkpt>
      <trkpt lat="45.04166" lon="4.10911">
        <ele>1178</ele>
        <time>2022-05-08T15:48:06Z</time>
      </trkpt>
      <trkpt lat="45.04177" lon="4.1091">
        <ele>1177</ele>
        <time>2022-05-08T15:48:06Z</time>
      </trkpt>
      <trkpt lat="45.04195" lon="4.10903">
        <ele>1176</ele>
        <time>2022-05-08T15:48:06Z</time>
      </trkpt>
      <trkpt lat="45.04264" lon="4.10827">
        <ele>1172</ele>
        <time>2022-05-08T15:48:06Z</time>
      </trkpt>
      <trkpt lat="45.04275" lon="4.10807">
        <ele>1169</ele>
        <time>2022-05-08T15:48:06Z</time>
      </trkpt>
      <trkpt lat="45.04301" lon="4.10788">
        <ele>1166</ele>
        <time>2022-05-08T15:48:06Z</time>
      </trkpt>
      <trkpt lat="45.04337" lon="4.10773">
        <ele>1162</ele>
        <time>2022-05-08T15:48:06Z</time>
      </trkpt>
      <trkpt lat="45.04346" lon="4.10772">
        <ele>1160</ele>
        <time>2022-05-08T15:48:06Z</time>
      </trkpt>
      <trkpt lat="45.04361" lon="4.10762">
        <ele>1157</ele>
        <time>2022-05-08T15:48:06Z</time>
      </trkpt>
      <trkpt lat="45.04367" lon="4.10755">
        <ele>1155</ele>
        <time>2022-05-08T15:48:06Z</time>
      </trkpt>
      <trkpt lat="45.04377" lon="4.10752">
        <ele>1153</ele>
        <time>2022-05-08T15:48:06Z</time>
      </trkpt>
      <trkpt lat="45.04399" lon="4.10739">
        <ele>1151</ele>
        <time>2022-05-08T15:48:06Z</time>
      </trkpt>
      <trkpt lat="45.04399" lon="4.10739">
        <ele>1139</ele>
        <time>2022-05-08T15:48:06Z</time>
      </trkpt>
      <trkpt lat="45.04406" lon="4.1073">
        <ele>1138</ele>
        <time>2022-05-08T15:48:06Z</time>
      </trkpt>
      <trkpt lat="45.04455" lon="4.10694">
        <ele>1136</ele>
        <time>2022-05-08T15:48:06Z</time>
      </trkpt>
      <trkpt lat="45.0446" lon="4.10685">
        <ele>1134</ele>
        <time>2022-05-08T15:48:06Z</time>
      </trkpt>
      <trkpt lat="45.04491" lon="4.10662">
        <ele>1131</ele>
        <time>2022-05-08T15:48:06Z</time>
      </trkpt>
      <trkpt lat="45.04502" lon="4.10643">
        <ele>1129</ele>
        <time>2022-05-08T15:48:06Z</time>
      </trkpt>
      <trkpt lat="45.04514" lon="4.10631">
        <ele>1127</ele>
        <time>2022-05-08T15:48:06Z</time>
      </trkpt>
      <trkpt lat="45.04519" lon="4.10621">
        <ele>1125</ele>
        <time>2022-05-08T15:48:06Z</time>
      </trkpt>
      <trkpt lat="45.04552" lon="4.10602">
        <ele>1122</ele>
        <time>2022-05-08T15:48:06Z</time>
      </trkpt>
      <trkpt lat="45.04593" lon="4.10594">
        <ele>1119</ele>
        <time>2022-05-08T15:48:06Z</time>
      </trkpt>
      <trkpt lat="45.04614" lon="4.10599">
        <ele>1116</ele>
        <time>2022-05-08T15:48:06Z</time>
      </trkpt>
      <trkpt lat="45.04669" lon="4.10593">
        <ele>1111</ele>
        <time>2022-05-08T15:48:06Z</time>
      </trkpt>
      <trkpt lat="45.04669" lon="4.10593">
        <ele>1097</ele>
        <time>2022-05-08T15:48:06Z</time>
      </trkpt>
      <trkpt lat="45.04684" lon="4.10585">
        <ele>1097</ele>
        <time>2022-05-08T15:48:06Z</time>
      </trkpt>
      <trkpt lat="45.04735" lon="4.10584">
        <ele>1095</ele>
        <time>2022-05-08T15:48:06Z</time>
      </trkpt>
      <trkpt lat="45.04743" lon="4.10586">
        <ele>1093</ele>
        <time>2022-05-08T15:48:06Z</time>
      </trkpt>
      <trkpt lat="45.0476" lon="4.10599">
        <ele>1092</ele>
        <time>2022-05-08T15:48:06Z</time>
      </trkpt>
      <trkpt lat="45.04781" lon="4.10631">
        <ele>1090</ele>
        <time>2022-05-08T15:48:06Z</time>
      </trkpt>
      <trkpt lat="45.04823" lon="4.10709">
        <ele>1087</ele>
        <time>2022-05-08T15:48:06Z</time>
      </trkpt>
      <trkpt lat="45.04834" lon="4.10723">
        <ele>1086</ele>
        <time>2022-05-08T15:48:06Z</time>
      </trkpt>
      <trkpt lat="45.04846" lon="4.10729">
        <ele>1084</ele>
        <time>2022-05-08T15:48:06Z</time>
      </trkpt>
      <trkpt lat="45.04913" lon="4.10798">
        <ele>1082</ele>
        <time>2022-05-08T15:48:06Z</time>
      </trkpt>
      <trkpt lat="45.04972" lon="4.10839">
        <ele>1082</ele>
        <time>2022-05-08T15:48:06Z</time>
      </trkpt>
      <trkpt lat="45.04992" lon="4.10843">
        <ele>1082</ele>
        <time>2022-05-08T15:48:06Z</time>
      </trkpt>
      <trkpt lat="45.05007" lon="4.10868">
        <ele>1083</ele>
        <time>2022-05-08T15:48:06Z</time>
      </trkpt>
      <trkpt lat="45.05023" lon="4.10885">
        <ele>1084</ele>
        <time>2022-05-08T15:48:06Z</time>
      </trkpt>
      <trkpt lat="45.05032" lon="4.10899">
        <ele>1085</ele>
        <time>2022-05-08T15:48:06Z</time>
      </trkpt>
      <trkpt lat="45.0506" lon="4.10911">
        <ele>1086</ele>
        <time>2022-05-08T15:48:06Z</time>
      </trkpt>
      <trkpt lat="45.05068" lon="4.10912">
        <ele>1086</ele>
        <time>2022-05-08T15:48:06Z</time>
      </trkpt>
      <trkpt lat="45.05075" lon="4.10918">
        <ele>1086</ele>
        <time>2022-05-08T15:48:06Z</time>
      </trkpt>
      <trkpt lat="45.0508" lon="4.10926">
        <ele>1086</ele>
        <time>2022-05-08T15:48:06Z</time>
      </trkpt>
      <trkpt lat="45.0509" lon="4.10951">
        <ele>1086</ele>
        <time>2022-05-08T15:48:06Z</time>
      </trkpt>
      <trkpt lat="45.05101" lon="4.10969">
        <ele>1087</ele>
        <time>2022-05-08T15:48:06Z</time>
      </trkpt>
      <trkpt lat="45.05119" lon="4.10993">
        <ele>1089</ele>
        <time>2022-05-08T15:48:06Z</time>
      </trkpt>
      <trkpt lat="45.05133" lon="4.11027">
        <ele>1088</ele>
        <time>2022-05-08T15:48:06Z</time>
      </trkpt>
      <trkpt lat="45.05142" lon="4.11045">
        <ele>1088</ele>
        <time>2022-05-08T15:48:06Z</time>
      </trkpt>
      <trkpt lat="45.05151" lon="4.1109">
        <ele>1088</ele>
        <time>2022-05-08T15:48:06Z</time>
      </trkpt>
      <trkpt lat="45.05157" lon="4.11103">
        <ele>1088</ele>
        <time>2022-05-08T15:48:06Z</time>
      </trkpt>
      <trkpt lat="45.05157" lon="4.11103">
        <ele>1088</ele>
        <time>2022-05-08T15:48:06Z</time>
      </trkpt>
      <trkpt lat="45.0518" lon="4.11156">
        <ele>1087</ele>
        <time>2022-05-08T15:48:06Z</time>
      </trkpt>
      <trkpt lat="45.05186" lon="4.1119">
        <ele>1087</ele>
        <time>2022-05-08T15:48:06Z</time>
      </trkpt>
      <trkpt lat="45.05193" lon="4.11327">
        <ele>1087</ele>
        <time>2022-05-08T15:48:06Z</time>
      </trkpt>
      <trkpt lat="45.05195" lon="4.11337">
        <ele>1088</ele>
        <time>2022-05-08T15:48:06Z</time>
      </trkpt>
      <trkpt lat="45.05201" lon="4.11344">
        <ele>1088</ele>
        <time>2022-05-08T15:48:06Z</time>
      </trkpt>
      <trkpt lat="45.05204" lon="4.11355">
        <ele>1088</ele>
        <time>2022-05-08T15:48:06Z</time>
      </trkpt>
      <trkpt lat="45.05203" lon="4.1138">
        <ele>1089</ele>
        <time>2022-05-08T15:48:06Z</time>
      </trkpt>
      <trkpt lat="45.05205" lon="4.11392">
        <ele>1089</ele>
        <time>2022-05-08T15:48:06Z</time>
      </trkpt>
      <trkpt lat="45.05211" lon="4.11401">
        <ele>1090</ele>
        <time>2022-05-08T15:48:06Z</time>
      </trkpt>
      <trkpt lat="45.05219" lon="4.11395">
        <ele>1090</ele>
        <time>2022-05-08T15:48:06Z</time>
      </trkpt>
      <trkpt lat="45.05232" lon="4.11377">
        <ele>1090</ele>
        <time>2022-05-08T15:48:06Z</time>
      </trkpt>
      <trkpt lat="45.05398" lon="4.11251">
        <ele>1088</ele>
        <time>2022-05-08T15:48:06Z</time>
      </trkpt>
      <trkpt lat="45.05439" lon="4.11238">
        <ele>1086</ele>
        <time>2022-05-08T15:48:06Z</time>
      </trkpt>
      <trkpt lat="45.05454" lon="4.11221">
        <ele>1084</ele>
        <time>2022-05-08T15:48:06Z</time>
      </trkpt>
      <trkpt lat="45.05459" lon="4.11209">
        <ele>1082</ele>
        <time>2022-05-08T15:48:06Z</time>
      </trkpt>
      <trkpt lat="45.05474" lon="4.11161">
        <ele>1081</ele>
        <time>2022-05-08T15:48:06Z</time>
      </trkpt>
      <trkpt lat="45.05486" lon="4.11138">
        <ele>1080</ele>
        <time>2022-05-08T15:48:06Z</time>
      </trkpt>
      <trkpt lat="45.05509" lon="4.11107">
        <ele>1078</ele>
        <time>2022-05-08T15:48:06Z</time>
      </trkpt>
      <trkpt lat="45.05545" lon="4.11031">
        <ele>1076</ele>
        <time>2022-05-08T15:48:06Z</time>
      </trkpt>
      <trkpt lat="45.05556" lon="4.1102">
        <ele>1074</ele>
        <time>2022-05-08T15:48:06Z</time>
      </trkpt>
      <trkpt lat="45.05578" lon="4.11001">
        <ele>1072</ele>
        <time>2022-05-08T15:48:06Z</time>
      </trkpt>
      <trkpt lat="45.05592" lon="4.10975">
        <ele>1070</ele>
        <time>2022-05-08T15:48:06Z</time>
      </trkpt>
      <trkpt lat="45.056" lon="4.10945">
        <ele>1069</ele>
        <time>2022-05-08T15:48:06Z</time>
      </trkpt>
      <trkpt lat="45.056" lon="4.10945">
        <ele>1061</ele>
        <time>2022-05-08T15:48:06Z</time>
      </trkpt>
      <trkpt lat="45.05608" lon="4.10856">
        <ele>1060</ele>
        <time>2022-05-08T15:48:06Z</time>
      </trkpt>
      <trkpt lat="45.05616" lon="4.10781">
        <ele>1058</ele>
        <time>2022-05-08T15:48:06Z</time>
      </trkpt>
      <trkpt lat="45.05622" lon="4.1077">
        <ele>1057</ele>
        <time>2022-05-08T15:48:06Z</time>
      </trkpt>
      <trkpt lat="45.05669" lon="4.10736">
        <ele>1056</ele>
        <time>2022-05-08T15:48:06Z</time>
      </trkpt>
      <trkpt lat="45.05693" lon="4.10722">
        <ele>1055</ele>
        <time>2022-05-08T15:48:06Z</time>
      </trkpt>
      <trkpt lat="45.05726" lon="4.10685">
        <ele>1053</ele>
        <time>2022-05-08T15:48:06Z</time>
      </trkpt>
      <trkpt lat="45.05752" lon="4.10678">
        <ele>1052</ele>
        <time>2022-05-08T15:48:06Z</time>
      </trkpt>
      <trkpt lat="45.05799" lon="4.10646">
        <ele>1051</ele>
        <time>2022-05-08T15:48:06Z</time>
      </trkpt>
      <trkpt lat="45.05806" lon="4.10634">
        <ele>1051</ele>
        <time>2022-05-08T15:48:06Z</time>
      </trkpt>
      <trkpt lat="45.058" lon="4.10627">
        <ele>1050</ele>
        <time>2022-05-08T15:48:06Z</time>
      </trkpt>
      <trkpt lat="45.058" lon="4.10627">
        <ele>1046</ele>
        <time>2022-05-08T15:48:06Z</time>
      </trkpt>
      <trkpt lat="45.05806" lon="4.10634">
        <ele>1046</ele>
        <time>2022-05-08T15:48:06Z</time>
      </trkpt>
      <trkpt lat="45.05812" lon="4.10627">
        <ele>1046</ele>
        <time>2022-05-08T15:48:06Z</time>
      </trkpt>
      <trkpt lat="45.05829" lon="4.10616">
        <ele>1046</ele>
        <time>2022-05-08T15:48:06Z</time>
      </trkpt>
      <trkpt lat="45.05837" lon="4.10613">
        <ele>1046</ele>
        <time>2022-05-08T15:48:06Z</time>
      </trkpt>
      <trkpt lat="45.0586" lon="4.10614">
        <ele>1047</ele>
        <time>2022-05-08T15:48:06Z</time>
      </trkpt>
      <trkpt lat="45.05879" lon="4.1064">
        <ele>1048</ele>
        <time>2022-05-08T15:48:06Z</time>
      </trkpt>
      <trkpt lat="45.0589" lon="4.1066">
        <ele>1049</ele>
        <time>2022-05-08T15:48:06Z</time>
      </trkpt>
      <trkpt lat="45.05897" lon="4.10666">
        <ele>1049</ele>
        <time>2022-05-08T15:48:06Z</time>
      </trkpt>
      <trkpt lat="45.05906" lon="4.1067">
        <ele>1050</ele>
        <time>2022-05-08T15:48:06Z</time>
      </trkpt>
      <trkpt lat="45.05911" lon="4.1068">
        <ele>1056</ele>
        <time>2022-05-08T15:48:06Z</time>
      </trkpt>
      <trkpt lat="45.05924" lon="4.10773">
        <ele>1058</ele>
        <time>2022-05-08T15:48:06Z</time>
      </trkpt>
      <trkpt lat="45.05924" lon="4.10773">
        <ele>1065</ele>
        <time>2022-05-08T15:48:06Z</time>
      </trkpt>
      <trkpt lat="45.05925" lon="4.10785">
        <ele>1065</ele>
        <time>2022-05-08T15:48:06Z</time>
      </trkpt>
      <trkpt lat="45.05922" lon="4.108">
        <ele>1065</ele>
        <time>2022-05-08T15:48:06Z</time>
      </trkpt>
      <trkpt lat="45.05884" lon="4.10824">
        <ele>1066</ele>
        <time>2022-05-08T15:48:06Z</time>
      </trkpt>
      <trkpt lat="45.05846" lon="4.10838">
        <ele>1067</ele>
        <time>2022-05-08T15:48:06Z</time>
      </trkpt>
      <trkpt lat="45.05782" lon="4.10889">
        <ele>1069</ele>
        <time>2022-05-08T15:48:06Z</time>
      </trkpt>
      <trkpt lat="45.05782" lon="4.10889">
        <ele>1077</ele>
        <time>2022-05-08T15:48:06Z</time>
      </trkpt>
      <trkpt lat="45.0576" lon="4.10914">
        <ele>1078</ele>
        <time>2022-05-08T15:48:06Z</time>
      </trkpt>
      <trkpt lat="45.05754" lon="4.10925">
        <ele>1078</ele>
        <time>2022-05-08T15:48:06Z</time>
      </trkpt>
      <trkpt lat="45.05755" lon="4.10936">
        <ele>1079</ele>
        <time>2022-05-08T15:48:06Z</time>
      </trkpt>
      <trkpt lat="45.05848" lon="4.10926">
        <ele>1083</ele>
        <time>2022-05-08T15:48:06Z</time>
      </trkpt>
      <trkpt lat="45.05911" lon="4.10945">
        <ele>1088</ele>
        <time>2022-05-08T15:48:06Z</time>
      </trkpt>
      <trkpt lat="45.0596" lon="4.10984">
        <ele>1094</ele>
        <time>2022-05-08T15:48:06Z</time>
      </trkpt>
      <trkpt lat="45.0602" lon="4.11057">
        <ele>1102</ele>
        <time>2022-05-08T15:48:06Z</time>
      </trkpt>
      <trkpt lat="45.06052" lon="4.11107">
        <ele>1109</ele>
        <time>2022-05-08T15:48:06Z</time>
      </trkpt>
      <trkpt lat="45.06052" lon="4.11107">
        <ele>1128</ele>
        <time>2022-05-08T15:48:06Z</time>
      </trkpt>
      <trkpt lat="45.06087" lon="4.11191">
        <ele>1129</ele>
        <time>2022-05-08T15:48:06Z</time>
      </trkpt>
      <trkpt lat="45.06104" lon="4.11301">
        <ele>1131</ele>
        <time>2022-05-08T15:48:06Z</time>
      </trkpt>
      <trkpt lat="45.06101" lon="4.11437">
        <ele>1134</ele>
        <time>2022-05-08T15:48:06Z</time>
      </trkpt>
      <trkpt lat="45.06157" lon="4.11628">
        <ele>1138</ele>
        <time>2022-05-08T15:48:06Z</time>
      </trkpt>
      <trkpt lat="45.06158" lon="4.11704">
        <ele>1143</ele>
        <time>2022-05-08T15:48:06Z</time>
      </trkpt>
      <trkpt lat="45.06158" lon="4.11704">
        <ele>1153</ele>
        <time>2022-05-08T15:48:06Z</time>
      </trkpt>
      <trkpt lat="45.06159" lon="4.11732">
        <ele>1153</ele>
        <time>2022-05-08T15:48:06Z</time>
      </trkpt>
      <trkpt lat="45.0617" lon="4.11777">
        <ele>1155</ele>
        <time>2022-05-08T15:48:06Z</time>
      </trkpt>
      <trkpt lat="45.06191" lon="4.11813">
        <ele>1157</ele>
        <time>2022-05-08T15:48:06Z</time>
      </trkpt>
      <trkpt lat="45.06226" lon="4.11839">
        <ele>1159</ele>
        <time>2022-05-08T15:48:06Z</time>
      </trkpt>
      <trkpt lat="45.06283" lon="4.11855">
        <ele>1161</ele>
        <time>2022-05-08T15:48:06Z</time>
      </trkpt>
      <trkpt lat="45.06297" lon="4.11854">
        <ele>1162</ele>
        <time>2022-05-08T15:48:06Z</time>
      </trkpt>
      <trkpt lat="45.06309" lon="4.11949">
        <ele>1167</ele>
        <time>2022-05-08T15:48:06Z</time>
      </trkpt>
      <trkpt lat="45.06333" lon="4.12006">
        <ele>1172</ele>
        <time>2022-05-08T15:48:06Z</time>
      </trkpt>
      <trkpt lat="45.06334" lon="4.12021">
        <ele>1175</ele>
        <time>2022-05-08T15:48:06Z</time>
      </trkpt>
      <trkpt lat="45.0633" lon="4.12045">
        <ele>1179</ele>
        <time>2022-05-08T15:48:06Z</time>
      </trkpt>
      <trkpt lat="45.0633" lon="4.12061">
        <ele>1181</ele>
        <time>2022-05-08T15:48:06Z</time>
      </trkpt>
      <trkpt lat="45.06364" lon="4.12135">
        <ele>1186</ele>
        <time>2022-05-08T15:48:06Z</time>
      </trkpt>
      <trkpt lat="45.06443" lon="4.12262">
        <ele>1198</ele>
        <time>2022-05-08T15:48:06Z</time>
      </trkpt>
      <trkpt lat="45.06443" lon="4.12262">
        <ele>1226</ele>
        <time>2022-05-08T15:48:06Z</time>
      </trkpt>
      <trkpt lat="45.06477" lon="4.12318">
        <ele>1228</ele>
        <time>2022-05-08T15:48:06Z</time>
      </trkpt>
      <trkpt lat="45.06479" lon="4.12328">
        <ele>1229</ele>
        <time>2022-05-08T15:48:06Z</time>
      </trkpt>
      <trkpt lat="45.06478" lon="4.12344">
        <ele>1230</ele>
        <time>2022-05-08T15:48:06Z</time>
      </trkpt>
      <trkpt lat="45.06481" lon="4.1236">
        <ele>1231</ele>
        <time>2022-05-08T15:48:06Z</time>
      </trkpt>
      <trkpt lat="45.0651" lon="4.1241">
        <ele>1233</ele>
        <time>2022-05-08T15:48:06Z</time>
      </trkpt>
      <trkpt lat="45.06522" lon="4.1242">
        <ele>1235</ele>
        <time>2022-05-08T15:48:06Z</time>
      </trkpt>
      <trkpt lat="45.06545" lon="4.12432">
        <ele>1236</ele>
        <time>2022-05-08T15:48:06Z</time>
      </trkpt>
      <trkpt lat="45.06552" lon="4.12445">
        <ele>1238</ele>
        <time>2022-05-08T15:48:06Z</time>
      </trkpt>
      <trkpt lat="45.06592" lon="4.12462">
        <ele>1240</ele>
        <time>2022-05-08T15:48:06Z</time>
      </trkpt>
      <trkpt lat="45.06605" lon="4.12473">
        <ele>1241</ele>
        <time>2022-05-08T15:48:06Z</time>
      </trkpt>
      <trkpt lat="45.06624" lon="4.12512">
        <ele>1243</ele>
        <time>2022-05-08T15:48:06Z</time>
      </trkpt>
      <trkpt lat="45.06644" lon="4.12578">
        <ele>1246</ele>
        <time>2022-05-08T15:48:06Z</time>
      </trkpt>
      <trkpt lat="45.06651" lon="4.12629">
        <ele>1259</ele>
        <time>2022-05-08T15:48:06Z</time>
      </trkpt>
      <trkpt lat="45.06655" lon="4.12642">
        <ele>1259</ele>
        <time>2022-05-08T15:48:06Z</time>
      </trkpt>
      <trkpt lat="45.06665" lon="4.12653">
        <ele>1260</ele>
        <time>2022-05-08T15:48:06Z</time>
      </trkpt>
      <trkpt lat="45.0669" lon="4.12661">
        <ele>1260</ele>
        <time>2022-05-08T15:48:06Z</time>
      </trkpt>
      <trkpt lat="45.06699" lon="4.12675">
        <ele>1261</ele>
        <time>2022-05-08T15:48:06Z</time>
      </trkpt>
      <trkpt lat="45.06708" lon="4.1271">
        <ele>1262</ele>
        <time>2022-05-08T15:48:06Z</time>
      </trkpt>
      <trkpt lat="45.06714" lon="4.12721">
        <ele>1262</ele>
        <time>2022-05-08T15:48:06Z</time>
      </trkpt>
      <trkpt lat="45.06727" lon="4.12732">
        <ele>1263</ele>
        <time>2022-05-08T15:48:06Z</time>
      </trkpt>
      <trkpt lat="45.06758" lon="4.12739">
        <ele>1264</ele>
        <time>2022-05-08T15:48:06Z</time>
      </trkpt>
      <trkpt lat="45.06775" lon="4.12753">
        <ele>1265</ele>
        <time>2022-05-08T15:48:06Z</time>
      </trkpt>
      <trkpt lat="45.06791" lon="4.12784">
        <ele>1266</ele>
        <time>2022-05-08T15:48:06Z</time>
      </trkpt>
      <trkpt lat="45.0679" lon="4.12801">
        <ele>1267</ele>
        <time>2022-05-08T15:48:06Z</time>
      </trkpt>
      <trkpt lat="45.06902" lon="4.12836">
        <ele>1269</ele>
        <time>2022-05-08T15:48:06Z</time>
      </trkpt>
      <trkpt lat="45.06945" lon="4.12824">
        <ele>1270</ele>
        <time>2022-05-08T15:48:06Z</time>
      </trkpt>
      <trkpt lat="45.07065" lon="4.12815">
        <ele>1269</ele>
        <time>2022-05-08T15:48:06Z</time>
      </trkpt>
      <trkpt lat="45.07144" lon="4.12836">
        <ele>1259</ele>
        <time>2022-05-08T15:48:06Z</time>
      </trkpt>
    </trkseg>
  </trk>
</gpx>